Temperature
14 14 14 14 14 14 15 15 14 14 15 16 16 16 16 16 16 16 16 16 16 16 16 15 15 15 14 14 13 13 13 13 13 13 14 14 14 14
13 14 14 14 14 14 14 14 14 14 14 16 16 16 16 16 16 16 16 16 16 15 15 15 14 14 14 14 13 13 14 14 14 14 14 14 15 15
13 13 13 14 14 14 14 14 14 14 15 16 16 16 15 16 16 15 15 15 15 15 14 14 14 14 14 14 14 14 14 14 14 14 15 15 15 15
13 13 13 14 14 14 14 14 14 14 15 15 16 16 16 16 15 15 15 15 15 15 15 14 14 14 14 14 14 14 14 14 14 15 15 15 15 15
12 13 13 13 13 13 13 13 14 14 14 15 15 15 16 16 15 15 15 15 15 15 15 15 15 15 14 14 14 14 14 14 14 14 14 15 15 15
12 12 12 12 12 12 13 13 13 13 14 14 15 15 15 15 15 15 14 14 14 14 14 14 15 14 14 14 14 14 14 14 14 14 14 14 14 14
12 12 12 12 11 12 12 12 13 13 13 13 14 14 15 15 15 14 14 14 14 14 14 14 14 14 14 14 14 14 14 14 14 14 14 14 14 14
11 11 11 11 11 11 11 11 11 12 12 12 13 13 13 14 14 14 14 14 13 14 14 14 14 14 14 14 14 14 14 15 15 15 14 14 14 14
11 11 11 11 11 11 11 11 11 11 11 11 12 12 12 12 13 13 13 13 13 13 13 13 14 14 14 14 14 14 14 15 15 15 15 15 14 14
11 11 11 11 11 11 11 11 11 11 11 11 11 11 12 12 12 12 12 12 12 13 13 13 13 13 14 14 14 14 14 14 14 15 15 15 15 15
11 11 11 11 11 11 11 11 12 12 12 12 11 11 11 11 11 12 12 12 12 12 12 12 13 13 13 13 14 14 14 14 14 14 15 15 15 15
11 11 11 11 11 11 11 11 11 11 12 12 11 11 11 11 11 11 12 12 12 12 12 12 12 12 12 13 13 13 13 13 13 13 14 14 14 15
10 10 10 10 10 10 10 11 11 11 11 11 11 11 11 11 11 11 11 11 11 11 11 11 11 11 11 11 12 12 12 12 12 12 13 13 14 14
9 9 9 9 9 9 10 10 10 10 11 11 11 11 11 11 11 11 11 11 11 11 11 11 11 11 11 11 11 11 11 11 11 11 12 12 13 13
9 9 9 9 9 9 9 9 10 10 10 10 10 10 10 10 11 11 11 11 11 11 11 11 11 11 11 11 11 11 11 11 11 10 11 11 12 12
8 8 8 8 8 8 9 9 9 9 9 9 9 9 10 10 10 11 11 11 11 11 11 11 11 11 11 11 11 11 11 11 10 10 10 11 11 11
8 8 8 8 8 8 8 8 8 8 8 8 8 9 9 9 9 9 10 10 10 11 11 11 11 11 11 11 11 11 10 10 10 10 10 10 10 10
8 8 8 8 8 8 8 8 8 8 8 8 8 8 8 8 8 9 9 9 10 10 10 11 11 11 11 11 11 11 11 11 10 10 10 10 9 9
8 7 7 7 7 7 7 7 7 7 7 7 7 7 7 7 7 8 8 8 9 9 9 10 10 10 11 11 11 11 11 11 11 11 11 10 10 10
7 7 7 7 6 6 6 6 6 6 6 6 6 6 6 6 6 6 7 7 8 8 8 9 9 9 9 10 10 11 11 11 11 11 11 11 10 10
7 7 7 6 6 6 5 5 5 5 5 5 5 5 5 5 5 5 5 6 6 7 7 7 8 8 8 9 10 10 11 11 11 11 11 11 11 11
7 7 7 6 6 5 5 5 4 4 4 4 4 4 4 4 4 4 4 5 5 5 6 6 7 7 8 8 8 9 9 10 10 10 11 11 11 11
7 7 6 6 5 5 5 4 4 4 3 3 3 3 3 3 3 3 3 3 4 4 5 5 6 6 7 7 7 8 8 8 9 9 10 10 10 10
Wind_Speed
2 1 1 1 1 2 3 3 2 3 4 5 4 2 2 3 6 4 2 1 1 3 5 9 15 20 22 23 24 24 24 23 22 21 20 20 19 19
1 1 1 1 2 2 2 2 3 5 5 4 4 3 4 4 6 5 4 5 5 7 10 13 16 18 20 21 21 22 21 20 20 20 19 19 19 19
1 0 1 2 2 2 2 2 3 5 6 5 4 3 5 5 4 5 5 5 5 8 11 14 16 17 18 19 19 19 19 19 19 20 20 19 19 19
2 4 5 5 6 5 4 4 4 4 5 6 4 3 5 5 5 5 4 5 6 9 12 14 16 17 18 18 19 18 18 18 19 20 20 20 21 21
6 6 6 6 6 5 5 5 5 5 3 4 4 3 3 2 3 3 4 3 5 9 11 12 14 16 17 17 17 17 17 18 18 19 19 20 21 21
7 7 7 6 5 5 5 6 6 6 4 3 3 3 2 1 3 3 3 2 3 6 8 11 13 15 16 17 17 19 20 20 20 19 20 20 21 22
7 7 7 9 8 5 4 6 7 6 5 4 3 3 3 2 1 2 3 3 2 2 4 5 6 7 10 16 19 21 22 23 22 22 22 22 23 23
7 7 8 10 10 9 8 9 9 6 6 5 4 4 4 3 2 1 3 4 3 1 3 4 5 6 7 10 17 21 23 24 24 23 24 24 24 24
7 7 8 11 12 9 10 11 10 12 10 5 4 5 5 6 4 2 1 2 2 2 2 3 4 4 4 8 14 17 20 21 22 23 23 23 24 23
7 6 8 9 10 9 9 9 8 8 8 5 3 4 4 5 4 2 1 2 3 2 1 2 2 3 3 4 11 13 15 16 17 17 18 18 19 20
6 7 7 7 11 12 10 10 10 9 9 10 6 5 7 8 6 3 3 3 1 1 1 1 1 1 2 4 7 12 13 13 13 12 10 9 10 12
5 6 10 10 12 12 8 8 9 8 9 9 7 6 6 7 7 4 2 1 1 1 1 1 1 0 2 2 4 5 7 8 11 10 9 8 8 6
5 6 7 13 14 13 9 6 6 6 6 7 7 7 6 6 5 4 1 1 1 2 2 1 1 1 2 2 1 4 5 4 5 5 8 10 9 6
5 5 7 13 13 13 9 11 13 10 6 6 7 7 6 6 6 5 3 2 3 4 3 2 2 2 1 2 2 1 2 3 4 3 4 7 7 5
5 9 11 13 11 8 10 12 10 7 6 7 7 6 5 6 7 6 6 4 3 3 3 3 3 2 1 2 1 1 1 1 1 2 3 3 3 3
6 9 10 10 8 7 7 7 6 5 4 5 5 5 7 7 8 7 6 6 4 5 5 4 2 2 2 1 1 0 1 1 1 1 2 3 3 3
5 5 5 6 7 7 6 6 6 6 6 5 6 6 7 8 6 5 5 4 5 5 5 5 3 1 2 3 2 2 1 1 1 2 3 3 4 3
5 4 5 5 5 5 4 5 5 5 5 5 5 6 6 7 7 6 5 5 5 5 5 5 4 4 3 2 2 3 2 2 2 3 3 4 3 1
4 3 3 4 4 4 4 4 4 5 5 5 5 5 5 6 5 6 7 6 6 5 5 5 5 3 3 4 4 0 3 2 3 3 4 4 4 4
2 2 2 3 3 3 3 4 4 5 5 5 5 5 5 5 5 6 6 7 6 6 6 5 5 4 2 3 4 3 3 1 2 4 3 3 4 4
2 3 3 2 2 2 3 4 4 4 5 5 5 5 5 5 5 5 6 8 7 6 7 7 7 9 4 3 4 4 4 6 3 3 4 4 3 3
5 4 4 4 4 3 3 3 3 4 4 4 4 5 5 4 4 4 5 4 5 5 6 6 7 6 4 3 3 5 6 6 7 6 3 4 5 7
6 6 5 5 5 4 4 4 4 2 3 3 4 4 5 4 4 4 4 4 3 4 5 6 6 5 4 3 2 3 5 6 5 5 5 8 5 1
Wind_Direction
30 58 99 264 258 247 233 207 207 276 281 266 262 262 208 186 186 179 188 214 79 75 94 121 137 144 149 153 158 164 169 175 179 183 190 196 203 210
341 350 329 266 262 262 266 247 217 231 252 258 250 240 210 203 191 173 169 145 126 116 113 121 129 135 141 148 155 162 169 173 179 185 192 199 206 212
310 75 46 40 19 11 350 301 244 224 238 263 257 246 212 199 171 161 151 141 141 138 132 132 137 143 150 156 163 167 172 179 185 191 197 202 208 214
63 61 38 32 26 10 356 332 302 269 238 258 270 252 224 202 177 166 159 161 158 163 154 152 154 158 165 170 178 184 188 193 196 200 203 208 213 220
60 54 39 33 23 4 359 349 329 316 273 253 267 261 245 183 160 161 168 154 167 173 174 174 173 176 181 186 193 201 206 209 210 211 213 216 221 225
60 52 37 26 13 358 358 353 346 342 334 311 288 292 279 220 158 157 157 157 167 169 177 184 190 192 196 201 208 214 218 220 221 220 221 223 225 228
51 41 33 22 11 1 356 353 355 355 349 351 350 354 357 6 203 171 158 140 122 143 155 175 181 192 203 214 218 222 224 224 224 224 224 226 229 231
43 22 23 23 14 18 16 14 15 10 358 355 355 1 357 348 342 153 143 140 159 145 148 177 177 192 202 208 219 222 225 226 225 225 225 228 232 235
54 42 42 32 29 29 27 20 13 15 20 11 5 354 345 347 352 29 79 122 147 155 141 179 185 193 194 204 213 219 224 227 226 224 225 228 233 237
50 48 50 36 27 32 33 21 7 358 352 360 353 332 333 334 349 5 54 76 68 31 70 187 200 202 188 195 199 198 205 213 217 220 224 229 234 238
34 35 40 38 23 36 36 19 11 2 356 351 331 325 339 355 6 34 42 61 45 340 354 180 226 241 212 210 205 197 188 188 192 195 196 204 218 225
18 21 29 30 28 37 39 27 13 346 351 9 10 347 340 342 358 23 41 75 79 288 269 196 234 326 282 237 193 195 193 189 182 171 155 147 153 163
31 11 3 11 20 25 35 31 357 340 1 22 22 9 355 348 338 325 282 159 152 262 256 186 226 207 238 272 223 202 202 197 190 168 145 136 140 143
26 356 347 1 6 8 15 11 15 22 22 27 27 14 1 349 334 323 297 255 220 230 247 196 227 225 232 251 260 253 213 201 196 178 150 135 133 145
4 354 357 2 0 359 1 9 16 24 28 30 23 7 346 345 358 351 344 338 325 295 268 222 225 245 218 239 262 287 300 253 178 155 140 134 129 118
357 348 354 359 5 359 0 9 16 23 33 31 12 356 357 4 11 7 358 347 343 324 323 310 266 229 226 219 209 264 339 338 1 46 54 59 64 70
348 360 4 358 359 358 3 11 18 24 29 25 25 16 10 7 3 357 355 355 353 334 330 337 346 334 232 195 193 231 243 309 335 53 59 60 65 70
25 8 353 353 354 356 7 11 18 20 17 22 32 28 20 12 3 357 1 5 356 344 340 338 353 3 359 322 205 198 204 208 189 156 132 115 120 123
45 21 13 12 20 29 34 33 19 8 15 30 35 32 30 23 15 10 10 7 1 351 348 353 5 17 11 330 313 134 178 181 151 146 154 139 154 172
81 86 63 54 56 54 49 44 37 32 34 31 27 26 26 29 23 11 12 12 6 2 4 10 3 352 330 291 293 322 28 92 136 136 130 93 85 89
152 140 134 120 101 80 63 60 61 54 46 39 26 19 17 26 27 15 9 11 16 14 11 359 334 327 311 322 329 336 353 17 34 147 135 123 123 145
190 173 160 153 145 127 101 84 70 56 45 41 25 12 6 13 16 18 16 13 8 4 1 352 343 356 17 11 3 347 341 349 10 39 73 146 159 179
192 183 172 166 167 159 138 117 110 91 65 51 35 19 14 4 350 353 2 1 357 357 357 355 356 2 7 356 354 358 356 357 359 359 352 358 3 250
Height
1482 1483 1483 1484 1485 1485 1486 1485 1485 1484 1483 1484 1484 1484 1484 1483 1482 1481 1480 1477 1475 1472 1471 1470 1470 1472 1476 1480 1485 1490 1495 1501 1506 1512 1517 1521 1525 1528
1481 1481 1481 1482 1482 1482 1482 1482 1482 1483 1481 1480 1481 1480 1479 1479 1478 1478 1477 1475 1473 1472 1471 1471 1472 1475 1478 1482 1487 1491 1497 1502 1507 1512 1516 1520 1523 1525
1481 1481 1481 1480 1480 1479 1479 1479 1479 1479 1478 1477 1477 1476 1475 1475 1475 1475 1474 1474 1472 1472 1472 1473 1475 1477 1480 1484 1488 1493 1498 1503 1507 1511 1514 1517 1520 1522
1481 1481 1480 1479 1478 1477 1477 1477 1476 1475 1474 1472 1473 1473 1472 1471 1471 1472 1472 1472 1472 1472 1473 1474 1476 1479 1483 1487 1491 1495 1500 1503 1507 1510 1512 1514 1516 1518
1482 1480 1479 1478 1477 1476 1475 1474 1472 1471 1470 1469 1469 1469 1468 1468 1468 1469 1470 1471 1472 1473 1474 1476 1478 1481 1485 1488 1492 1496 1499 1502 1505 1507 1509 1510 1512 1513
1482 1480 1479 1478 1477 1476 1474 1472 1470 1469 1468 1467 1466 1465 1465 1464 1465 1466 1467 1469 1471 1472 1474 1476 1479 1481 1485 1488 1491 1494 1497 1499 1501 1502 1504 1505 1506 1508
1482 1481 1480 1479 1478 1476 1475 1472 1470 1468 1467 1465 1464 1463 1462 1462 1462 1463 1465 1467 1469 1471 1473 1475 1478 1480 1483 1486 1488 1491 1492 1494 1495 1497 1498 1500 1501 1502
1484 1483 1482 1480 1479 1478 1476 1474 1471 1469 1467 1465 1464 1462 1461 1460 1460 1461 1462 1464 1466 1469 1471 1473 1476 1477 1480 1482 1484 1486 1487 1488 1490 1491 1492 1494 1495 1497
1487 1486 1484 1483 1482 1480 1478 1476 1474 1471 1469 1466 1464 1463 1462 1460 1459 1459 1461 1462 1464 1466 1468 1470 1472 1474 1476 1478 1480 1482 1483 1484 1484 1485 1486 1488 1490 1492
1490 1489 1487 1486 1484 1483 1481 1479 1476 1474 1471 1469 1467 1465 1463 1462 1461 1460 1460 1461 1462 1463 1465 1467 1468 1470 1471 1472 1474 1476 1478 1479 1480 1481 1481 1483 1484 1486
1492 1491 1490 1489 1487 1486 1483 1481 1479 1476 1474 1472 1471 1469 1467 1465 1463 1462 1461 1462 1462 1462 1463 1464 1464 1465 1466 1467 1468 1469 1471 1473 1475 1476 1477 1478 1479 1481
1494 1493 1492 1490 1489 1487 1485 1483 1480 1478 1477 1475 1474 1472 1470 1468 1466 1465 1464 1463 1463 1463 1462 1462 1461 1461 1461 1462 1463 1463 1464 1465 1468 1470 1471 1472 1474 1476
1495 1494 1492 1491 1490 1488 1486 1484 1483 1481 1479 1477 1475 1474 1473 1471 1470 1468 1467 1465 1464 1463 1462 1460 1459 1458 1458 1458 1458 1458 1458 1458 1460 1462 1464 1466 1468 1471
1495 1494 1492 1491 1490 1488 1487 1485 1483 1482 1479 1478 1476 1475 1473 1472 1471 1470 1468 1467 1465 1463 1461 1460 1458 1457 1456 1455 1454 1454 1453 1453 1453 1454 1456 1459 1462 1465
1495 1493 1492 1491 1489 1488 1487 1485 1483 1481 1479 1478 1476 1475 1475 1473 1471 1470 1468 1466 1465 1463 1462 1460 1458 1456 1455 1453 1452 1451 1450 1449 1449 1449 1450 1452 1455 1459
1494 1493 1492 1490 1489 1488 1487 1485 1483 1481 1480 1478 1477 1476 1474 1473 1471 1469 1467 1466 1464 1463 1462 1460 1459 1457 1455 1453 1452 1451 1450 1449 1447 1447 1447 1449 1452 1455
1493 1492 1491 1489 1488 1487 1486 1485 1483 1481 1480 1478 1477 1475 1474 1472 1470 1469 1467 1465 1464 1463 1461 1460 1459 1457 1455 1454 1453 1452 1451 1451 1450 1449 1449 1450 1452 1456
1492 1491 1490 1489 1488 1487 1486 1485 1483 1481 1480 1478 1477 1475 1473 1472 1470 1469 1467 1465 1463 1462 1460 1459 1458 1457 1457 1456 1456 1454 1454 1453 1453 1453 1453 1455 1456 1459
1493 1491 1491 1490 1489 1488 1486 1485 1483 1482 1480 1478 1476 1474 1473 1471 1470 1468 1466 1465 1463 1461 1460 1458 1458 1457 1457 1456 1456 1456 1455 1455 1455 1455 1456 1457 1459 1461
1493 1492 1491 1490 1489 1488 1486 1485 1483 1481 1480 1478 1476 1474 1472 1470 1469 1467 1466 1464 1462 1461 1459 1458 1457 1456 1456 1456 1455 1455 1455 1456 1455 1456 1456 1457 1459 1462
1492 1492 1491 1490 1489 1487 1485 1484 1482 1480 1479 1477 1476 1474 1472 1470 1468 1467 1465 1463 1462 1460 1458 1457 1456 1455 1455 1455 1454 1453 1454 1454 1455 1456 1456 1457 1458 1460
1491 1490 1489 1488 1487 1486 1484 1482 1481 1479 1478 1476 1475 1473 1472 1470 1468 1466 1464 1463 1461 1460 1458 1457 1456 1454 1454 1453 1452 1452 1452 1452 1453 1454 1456 1457 1457 1458
1488 1487 1486 1485 1484 1483 1482 1481 1479 1478 1477 1475 1474 1472 1470 1469 1467 1465 1463 1462 1460 1459 1457 1456 1455 1454 1453 1452 1451 1450 1450 1450 1451 1452 1453 1454 1454 1455